DW9498 Weather Reports


Display with metric or nautical units.
time (UTC)temp
F
wind
direction
speed
MPH
gust
MPH
rain 1hr
in
rain 24hr
in
rain mn
in
humidity
%
barometer
mb
20260902101341 75 288 0.0 0.0 0.00 0.00 0.00 68 1012.0
20260902100329 76 288 0.0 0.0 0.00 0.00 0.00 67 1012.0
20260902095341 76 288 0.0 0.0 0.00 0.00 0.00 67 1012.0
20260902094359 77 288 0.0 0.0 0.00 0.00 0.00 65 1012.1
20260902093349 77 309 0.0 0.0 0.00 0.00 0.00 67 1012.2
20260902092334 77 327 0.0 0.0 0.00 0.00 0.00 66 1012.1
20260902091335 78 327 0.0 0.0 0.00 0.00 0.00 64 1012.2
20260902090325 78 327 0.0 4.0 0.00 0.00 0.00 64 1012.2
20260902085335 78 236 0.0 3.0 0.00 0.00 0.00 63 1012.0
20260902084359 78 251 1.0 3.0 0.00 0.00 0.00 65 1012.1
20260902083331 78 2 0.0 4.0 0.00 0.00 0.00 66 1012.3
20260902082344 78 5 1.0 3.0 0.00 0.00 0.00 66 1012.2
20260902081325 77 8 2.0 4.0 0.00 0.00 0.00 67 1012.3
20260902080334 76 157 0.0 0.0 0.00 0.00 0.00 68 1011.9
20260902075324 76 157 0.0 0.0 0.00 0.00 0.00 67 1011.5
20260902074328 77 157 0.0 0.0 0.00 0.00 0.00 65 1011.5
20260902073335 78 157 0.0 1.0 0.00 0.00 0.00 64 1011.4
20260902072323 78 133 0.0 2.0 0.00 0.00 0.00 64 1011.4
20260902071324 77 148 0.0 0.0 0.00 0.00 0.00 65 1011.4
20260902070333 78 148 0.0 0.0 0.00 0.00 0.00 65 1011.4
20260902065327 79 148 0.0 0.0 0.00 0.00 0.00 63 1011.4
20260902064333 80 220 0.0 1.0 0.00 0.00 0.00 62 1011.4
20260902063324 80 152 0.0 2.0 0.00 0.00 0.00 61 1011.4
20260902062337 80 138 1.0 4.0 0.00 0.00 0.00 60 1011.2
20260902061354 81 173 1.0 4.0 0.00 0.00 0.00 60 1011.1
20260902060344 81 230 1.0 3.0 0.00 0.00 0.00 60 1011.0
20260902055328 81 115 1.0 3.0 0.00 0.00 0.00 60 1011.0
20260902054352 82 202 0.0 3.0 0.00 0.00 0.00 59 1011.0
20260902053337 82 166 0.0 5.0 0.00 0.00 0.00 59 1011.0
20260902052326 82 160 1.0 3.0 0.00 0.00 0.00 58 1011.0
20260902051349 83 187 1.0 3.0 0.00 0.00 0.00 58 1011.1
20260902050337 83 240 1.0 4.0 0.00 0.00 0.00 57 1011.1
20260902045331 83 162 1.0 3.0 0.00 0.00 0.00 57 1011.1
20260902044339 84 221 0.0 5.0 0.00 0.00 0.00 57 1011.2
20260902043345 84 249 0.0 3.0 0.00 0.00 0.00 57 1011.2
20260902042336 84 200 2.0 6.0 0.00 0.00 0.00 58 1011.1
20260902041340 83 121 1.0 4.0 0.00 0.00 0.00 59 1011.2
20260902040326 83 221 0.0 3.0 0.00 0.00 0.00 60 1011.3
20260902035341 83 159 0.0 0.0 0.00 0.00 0.00 61 1011.3
20260902034325 83 191 0.0 0.0 0.00 0.00 0.00 62 1011.3
20260902033351 84 165 0.0 0.0 0.00 0.00 0.00 62 1011.3
20260902032351 84 151 0.0 0.0 0.00 0.00 0.00 62 1011.2
20260902031332 84 172 0.0 0.0 0.00 0.00 0.00 62 1011.2
20260902030323 85 162 0.0 1.0 0.00 0.00 0.00 61 1011.1
20260902025328 85 244 0.0 2.0 0.00 0.00 0.00 61 1011.1
20260902024335 85 126 0.0 0.0 0.00 0.00 0.00 61 1010.9
20260902023326 85 164 0.0 2.0 0.00 0.00 0.00 61 1010.8
20260902022338 86 176 0.0 0.0 0.00 0.00 0.00 61 1010.7
20260902021324 86 85 0.0 1.0 0.00 0.00 0.00 60 1010.4
20260902020339 87 176 0.0 0.0 0.00 0.00 0.00 60 1010.4
20260902015324 87 177 0.0 1.0 0.00 0.00 0.00 59 1010.4
20260902014329 88 225 0.0 0.0 0.00 0.00 0.00 58 1010.2
20260902013335 89 183 0.0 2.0 0.00 0.00 0.00 57 1010.0
20260902012402 89 182 0.0 2.0 0.00 0.00 0.00 56 1009.9
20260902011331 89 221 0.0 1.0 0.00 0.00 0.00 56 1009.9
20260902010344 90 154 0.0 2.0 0.00 0.00 0.00 56 1009.9
20260902005326 90 179 0.0 0.0 0.00 0.00 0.00 56 1009.8
20260902004344 91 166 0.0 1.0 0.00 0.00 0.00 55 1009.8
20260902003325 92 135 0.0 1.0 0.00 0.00 0.00 53 1009.8
20260902002337 93 142 0.0 1.0 0.00 0.00 0.00 51 1009.8
20260902001341 94 157 0.0 1.0 0.00 0.00 0.00 50 1009.8
20260902000407 95 222 0.0 3.0 0.00 0.00 0.00 48 1009.9
20260901235329 97 169 2.0 5.0 0.00 0.00 0.00 46 1010.0
20260901234334 98 169 2.0 6.0 0.00 0.00 0.00 45 1010.1
20260901233343 98 152 1.0 3.0 0.00 0.00 0.00 45 1010.2
20260901232330 98 157 1.0 4.0 0.00 0.00 0.00 47 1010.2
20260901231339 97 150 2.0 6.0 0.00 0.00 0.00 46 1010.1
20260901230329 98 156 2.0 7.0 0.00 0.00 0.00 46 1010.2
20260901225359 98 149 3.0 8.0 0.00 0.00 0.00 46 1010.4
20260901224339 98 144 3.0 6.0 0.00 0.00 0.00 45 1010.5
20260901223345 98 281 2.0 7.0 0.00 0.00 0.00 45 1010.4
20260901222329 98 149 3.0 8.0 0.00 0.00 0.00 45 1010.4
20260901221334 98 225 2.0 8.0 0.00 0.00 0.00 47 1010.5
20260901220345 98 152 4.0 7.0 0.00 0.00 0.00 46 1010.7
20260901215329 97 145 3.0 8.0 0.00 0.00 0.00 46 1010.7
20260901214336 97 163 2.0 9.0 0.00 0.00 0.00 46 1010.8
20260901213347 97 153 2.0 6.0 0.00 0.00 0.00 48 1010.8
20260901212329 97 243 3.0 7.0 0.00 0.00 0.00 48 1010.9
20260901211334 97 166 3.0 7.0 0.00 0.00 0.00 48 1011.0
20260901210323 97 162 2.0 8.0 0.00 0.00 0.00 48 1011.1
20260901205333 96 130 2.0 9.0 0.00 0.00 0.00 49 1011.1
20260901204340 96 312 2.0 8.0 0.00 0.00 0.00 49 1011.3
20260901203348 96 187 3.0 9.0 0.00 0.00 0.00 49 1011.4
20260901202330 96 190 3.0 8.0 0.00 0.00 0.00 49 1011.6
20260901201401 96 164 3.0 8.0 0.00 0.00 0.00 50 1011.7
20260901200351 96 204 2.0 8.0 0.00 0.00 0.00 50 1011.8
20260901195341 95 123 4.0 10.0 0.00 0.00 0.00 50 1011.9
20260901194344 95 273 2.0 7.0 0.00 0.00 0.00 49 1011.9
20260901193325 95 135 3.0 8.0 0.00 0.00 0.00 49 1012.1
20260901192336 95 255 1.0 6.0 0.00 0.00 0.00 49 1012.1
20260901191340 95 251 1.0 5.0 0.00 0.00 0.00 49 1012.3
20260901190348 94 171 1.0 4.0 0.00 0.00 0.00 49 1012.4
20260901185334 94 170 3.0 6.0 0.00 0.00 0.00 49 1012.4
20260901184339 94 181 2.0 6.0 0.00 0.00 0.00 49 1012.4
20260901183350 94 145 2.0 7.0 0.00 0.00 0.00 49 1012.5
20260901182340 94 179 1.0 4.0 0.00 0.00 0.00 49 1012.5
20260901181326 93 140 1.0 3.0 0.00 0.00 0.00 50 1012.6
20260901180333 93 305 1.0 3.0 0.00 0.00 0.00 51 1012.7
20260901175402 92 249 0.0 4.0 0.00 0.00 0.00 52 1012.8
20260901174326 92 173 0.0 5.0 0.00 0.00 0.00 53 1012.9
20260901173330 91 147 0.0 5.0 0.00 0.00 0.00 53 1012.9
20260901172339 91 152 1.0 4.0 0.00 0.00 0.00 54 1013.1
20260901171326 90 292 0.0 2.0 0.00 0.00 0.00 56 1013.2
20260901170334 89 167 1.0 4.0 0.00 0.00 0.00 54 1013.1
20260901165329 88 236 1.0 4.0 0.00 0.00 0.00 55 1013.1
20260901164334 89 176 1.0 4.0 0.00 0.00 0.00 55 1013.2
20260901163324 88 163 1.0 5.0 0.00 0.00 0.00 56 1013.3
20260901162335 88 214 1.0 4.0 0.00 0.00 0.00 55 1013.3
20260901161335 87 216 0.0 4.0 0.00 0.00 0.00 56 1013.3
20260901160324 87 223 0.0 3.0 0.00 0.00 0.00 57 1013.4
20260901155336 86 172 1.0 4.0 0.00 0.00 0.00 57 1013.2
20260901154343 86 155 1.0 4.0 0.00 0.00 0.00 58 1013.2
20260901153349 86 161 0.0 3.0 0.00 0.00 0.00 57 1013.1
20260901152335 85 169 1.0 3.0 0.00 0.00 0.00 58 1013.0
20260901151341 84 147 1.0 3.0 0.00 0.00 0.00 59 1013.0
20260901150349 83 259 0.0 3.0 0.00 0.00 0.00 61 1013.2
20260901145329 82 139 0.0 3.0 0.00 0.00 0.00 63 1013.2
20260901144324 81 148 0.0 4.0 0.00 0.00 0.00 64 1013.2
20260901143350 80 243 2.0 3.0 0.00 0.00 0.00 65 1013.3
20260901142334 80 210 0.0 3.0 0.00 0.00 0.00 67 1013.4
20260901141340 79 152 0.0 3.0 0.00 0.00 0.00 69 1013.5
20260901140330 79 168 0.0 0.0 0.00 0.00 0.00 71 1013.5
20260901135323 78 214 0.0 0.0 0.00 0.00 0.00 72 1013.4
20260901134345 78 160 0.0 1.0 0.00 0.00 0.00 72 1013.5
20260901133327 77 285 0.0 0.0 0.00 0.00 0.00 73 1013.4
20260901132342 77 225 0.0 0.0 0.00 0.00 0.00 75 1013.5
20260901131356 77 225 0.0 0.0 0.00 0.00 0.00 75 1013.5
20260901130342 76 246 0.0 0.0 0.00 0.00 0.00 75 1013.5
20260901125349 76 186 0.0 0.0 0.00 0.00 0.00 76 1013.4
20260901124401 76 185 0.0 0.0 0.00 0.00 0.00 77 1013.4
20260901123330 75 185 0.0 1.0 0.00 0.00 0.00 77 1013.2
20260901122333 75 186 0.0 0.0 0.00 0.00 0.00 77 1013.0
20260901121341 75 189 0.0 0.0 0.00 0.00 0.00 77 1012.9
20260901120331 75 182 0.0 0.0 0.00 0.00 0.00 78 1012.8
20260901115326 75 182 0.0 0.0 0.00 0.00 0.00 78 1012.7
20260901114329 75 182 0.0 0.0 0.00 0.00 0.00 78 1012.8
20260901113338 75 182 0.0 0.0 0.00 0.00 0.00 77 1012.9
20260901112333 76 182 0.0 0.0 0.00 0.00 0.00 76 1012.9
20260901111351 76 182 0.0 0.0 0.00 0.00 0.00 75 1012.9
20260901110333 77 182 0.0 1.0 0.00 0.00 0.00 74 1012.9
20260901105347 76 154 0.0 0.0 0.00 0.00 0.00 76 1012.9
20260901104401 76 154 0.0 0.0 0.00 0.00 0.00 77 1012.9
20260901103350 77 213 0.0 0.0 0.00 0.00 0.00 78 1012.9
20260901102332 77 213 0.0 0.0 0.00 0.00 0.00 78 1013.0